User: anonymous   Login
Location: Unspecified
(0.0000°N, 0.0000°E)
Time: 21:14:29
(UTC+00:00)
Language:

DMSP 5D-3 F19 (USA 249) - Orbit

View from above orbital plane
View from above orbital plane
View from above satellite
View from above satellite

Ground track
Ground track

The orbit data is extracted from the following two-line orbital elements,

1 39630U 14015A   17086.68227343 0.00000040  00000-0  21031-4 0    07
2 39630  98.8006 104.2180 0010500  88.2086 271.7913 14.14097801    03
Epoch (UTC): 27 March 2017 16:22:28
Eccentricity: 0.0010500
inclination: 98.8006°
perigee height: 838 km
apogee height: 853 km
right ascension of ascending node: 104.2180°
argument of perigee: 88.2086°
revolutions per day: 14.14097801
mean anomaly at epoch: 271.7913°
orbit number at epoch: 0

The dashed part of the orbit path shows where the satellite is in the earth's shadow,  

DLR